Regional Weather Roundup
Issued by NWS

Home | Current Version | Previous Version | Text Only | Print | Product List | Glossary Off
Versions: 1 2 3 4 5 6 7 8 9 10 11 12 13 14 15 16 17 18 19 20 21 22 23 24 25 26 27 28 29 30 31 32 33 34 35 36 37 38 39 40 41 42 43 44 45 46 47 48 49 50

000
ASUS43 KDMX 281607
RWRIA

WEATHER ROUNDUP FOR IOWA
NATIONAL WEATHER SERVICE DES MOINES IA
1100 AM CDT SAT MAR 28 2015

NOTE: "FAIR" INDICATES FEW OR NO CLOUDS BELOW 12,000 FEET WITH NO
SIGNIFICANT WEATHER AND/OR OBSTRUCTIONS TO VISIBILITY.

* - THESE STATIONS ARE NOT NWS STATIONS...THUS NOT UNDER NWS
QUALITY CONTROL.  THEY ALSO DO NOT REPORT WEATHER SUCH
AS PRECIPITATION OR FOG.

IAZ001>003-012>014-020>022-031>034-043>046-281700-
   NORTHWEST IOWA

CITY           SKY/WX    TMP DP  RH WIND       PRES   REMARKS
CARROLL *      SUNNY     39  25  56 SE12G20   30.20S WCI  32
CHEROKEE *     SUNNY     37  28  70 SE12G17   30.18S WCI  30
DENISON *      CLOUDY    39  27  60 SE12G18   30.16S WCI  32
LE MARS *      SUNNY     39  27  60 S15G23    30.16S WCI  31
ORANGE CITY *  SUNNY     39  25  56 S12       30.15S WCI  32
SHELDON *      SUNNY     37  30  75 SE16      30.15S WCI  28
SIOUX CITY     SUNNY     42  26  53 SE12      30.16S
SPENCER        CLOUDY    36  29  75 SE16      30.18F WCI  26
STORM LAKE *   SUNNY     36  28  75 SE12G18   30.18S WCI  27
$$

IAZ055>058-069>071-079>083-090>094-281700-
   SOUTHWEST IOWA

CITY           SKY/WX    TMP DP  RH WIND       PRES   REMARKS
ATLANTIC *     CLOUDY    39  25  56 SE10      30.19S WCI  32
AUDUBON *      SUNNY     43  25  49 SE13      30.19S
CLARINDA *     SUNNY     41  30  65 SE13G18   30.21S
COUNCIL BLFS * SUNNY     41  28  60 SE15G21   30.17S
CRESTON *      CLOUDY    39  27  60 S16       30.21R WCI  30
HARLAN  *      CLOUDY    39  30  70 SE12      30.22R WCI  32
LAMONI         CLOUDY    37  25  61 SE9       30.22S WCI  30
RED OAK *      SUNNY     43  28  56 SE14      30.19S
SHENANDOAH *   SUNNY     43  30  61 SE16      30.19S
$$

IAZ047>049-059>061-072>074-084-281700-
   CENTRAL IOWA

CITY           SKY/WX    TMP DP  RH WIND       PRES   REMARKS
AMES           MOSUNNY   40  16  37 SE13      30.25R WCI  32
ANKENY *       CLOUDY    39  14  35 SE15      30.25S WCI  31
CHARITON *     MOSUNNY   39  16  38 SE15      30.24S WCI  31
DES MOINES     MOSUNNY   41  12  30 S10G21    30.24F
GRINNELL*      SUNNY     37  16  41 S10G18    30.27S WCI  30
KNOXVILLE *    SUNNY     39  12  33 SE12      30.24S WCI  32
MARSHALLTOWN   SUNNY     37  17  44 SE12      30.26S WCI  29
PELLA *        SUNNY     39  19  45 SE10      30.28S WCI  32
PERRY *        PTSUNNY   39  21  48 SE13      30.22S WCI  32
$$

IAZ004>006-015-016-023>025-035-036-281700-
   NORTH CENTRAL IOWA

CITY           SKY/WX    TMP DP  RH WIND       PRES   REMARKS
ALGONA *       CLOUDY    34  19  55 S12       30.22S WCI  25
CLARION *      CLOUDY    36  19  51 SE14      30.23S WCI  27
ESTHERVILLE    CLOUDY    35  24  64 S15       30.19S WCI  25
FORT DODGE *   CLOUDY    37  19  48 SE8       30.23S WCI  31
MASON CITY     SUNNY     37  17  44 S10       30.25S WCI  30
FOREST CITY *  SUNNY     36  19  51 S12       30.23S WCI  27
IOWA FALLS *   PTSUNNY   37  16  41 SE9       30.25S WCI  31
$$

IAZ007>011-017>019-026>030-037>042-050>054-066-281700-
   NORTHEAST IOWA

CITY           SKY/WX    TMP DP  RH WIND       PRES   REMARKS
CEDAR RAPIDS   SUNNY     35  15  44 S12       30.29S WCI  27
CHARLES CITY * SUNNY     36  18  48 S9        30.27S WCI  29
CLINTON *      SUNNY     32  12  43 SE8       30.37S WCI  25
DECORAH *      SUNNY     30  14  51 SE8       30.28S WCI  23
DUBUQUE        SUNNY     31  14  49 S8        30.31S WCI  23
MONTICELLO *   SUNNY     34  14  44 S8G15     30.32S WCI  27
OELWEIN *      SUNNY     34  16  47 S13       30.28F WCI  25
WATERLOO       SUNNY     37  16  42 SE10      30.28R WCI  30
$$

IAZ064-065-067-068-078-281700-
   EAST CENTRAL IOWA

CITY           SKY/WX    TMP DP  RH WIND       PRES   REMARKS
DAVENPORT      SUNNY     32  12  43 SE7       30.34R WCI  26
IOWA CITY      SUNNY     35  16  45 SE10G17   30.33S WCI  27
MT. PLEASANT * SUNNY     37  14  38 SE8       30.32S WCI  31
MUSCATINE *    SUNNY     34  16  47 SE10      30.34S WCI  26
QUAD CITIES    SUNNY     34  12  40 SE10G17   30.34S WCI  26
$$

IAZ062-063-075>077-085>089-095>099-281700-
   SOUTHEAST IOWA

CITY           SKY/WX    TMP DP  RH WIND       PRES   REMARKS
BURLINGTON     SUNNY     35  16  45 SE9       30.32S WCI  28
FAIRFIELD *    SUNNY     37  14  38 SE12      30.30S WCI  30
FORT MADISON * SUNNY     36  18  48 SE7       30.32S WCI  30
KEOKUK *       SUNNY     37  16  41 SE12      30.31S WCI  30
OSKALOOSA *      N/A     37  14  38 SE14      30.28S WCI  29
CENTERVILLE *  SUNNY     39  14  35 E15       30.27S WCI  31
OTTUMWA        SUNNY     39  14  36 SE12      30.28R WCI  32
WASHINGTON *   SUNNY     36  16  44 SE10G18   30.31S WCI  28
$$

ABBREVIATIONS USED IN REMARKS
   TC - TEMPERATURES IN CELSIUS
  WCI - WIND CHILL INDEX
   HX - HEAT INDEX
  VSB - VISIBILITY
$$



USA.gov is the U.S. government's official web portal to all federal, state and local government web resources and services.